Hourly Data Report for July 10, 2017

QUALICUM BEACH AIRPORT
BRITISH COLUMBIA

49°20'14.000" N
124°23'38.000" W
58.20 m
1026562
71766
VOQ

Download Data

Hourly Data (July 2017)
Hourly Data Report for July 10, 2017
TIME
LST
Temp Definition
°C
Dew Point Definition
°C
Rel Hum Definition
%
Precip. Amount Definition
mm

Wind Dir Definition
10's deg

Wind Spd Definition
km/h
Visibility Definition
km
Stn Press Definition
kPa
Hmdx Definition


Wind Chill Definition


Weather Definition


00:00 16.8 10.5 67 0.0 32 9   101.01     LegendNANA
01:00 16.1 9.9 67 0.0 31 9   100.99     LegendNANA
02:00 15.6 8.8 64 0.0 29 8   100.98     LegendNANA
03:00 13.8 8.7 71 0.0 27 6   100.97     LegendNANA
04:00 13.1 8.1 72 0.0 27 5   100.97     LegendNANA
05:00 13.5 8.1 70 0.0 28 5   100.97     LegendNANA
06:00 14.9 7.9 63 0.0 28 7   100.98     LegendNANA
07:00 15.3 8.1 62 0.0 30 9   100.99     LegendNANA
08:00 16.0 8.3 60 0.0 32 13   101.02     LegendNANA
09:00 16.6 8.6 59 0.0 32 12   101.01     LegendNANA
10:00 17.6 10.2 62 0.0 33 8   100.98     LegendNANA
11:00 18.2 10.5 61 0.0 35 9   100.98     LegendNANA
12:00 17.3 10.7 65 0.0 33 12   100.99     LegendNANA
13:00 18.0 10.9 63 0.0 32 11   101.00     LegendNANA
14:00 17.6 11.3 67 0.0 34 11   101.02     LegendNANA
15:00 17.8 10.7 63 0.0 34 11   101.01     LegendNANA
16:00 18.6 10.5 59 0.0 35 12   101.00     LegendNANA
17:00 18.9 9.4 54 0.0 33 10   101.01     LegendNANA
18:00 18.2 10.2 60 0.0 31 8   101.00     LegendNANA
19:00 18.4 9.8 58 0.0 30 5   101.00     LegendNANA
20:00 17.6 11.7 69 0.0 32 4   100.99     LegendNANA
21:00 14.9 11.7 82 0.0 23 3   101.02     LegendNANA
22:00 14.9 10.9 77 0.0 26 5   101.03     LegendNANA
23:00 15.0 9.5 70 0.0 26 7   101.04     LegendNANA

Notes on Data Quality.

Legend

  • E = Estimated
  • M = Missing
  • NA = Not Available*
  • [empty] = Indicates an unobserved value
Date modified: